Waarnemingen

Advertentie
Mijn weer
Saarbrücken-Ensheim, Duitsland (10708): temperatuur & dauwpunt: 22.02.2017 10:00:00 - 28.02.2017 10:00:00 (CET)Saarbrücken-Ensheim, Duitsland (10708): temperatuur 5cm & temperatuur -5cm: 22.02.2017 10:00:00 - 28.02.2017 10:00:00 (CET)Saarbrücken-Ensheim, Duitsland (10708): temperatuur -20cm & temperatuur -100cm: 22.02.2017 10:00:00 - 28.02.2017 10:00:00 (CET)Saarbrücken-Ensheim, Duitsland (10708): windsnelheid & windstoten: 22.02.2017 10:00:00 - 28.02.2017 10:00:00 (CET)Saarbrücken-Ensheim, Duitsland (10708): windrichting: 22.02.2017 10:00:00 - 28.02.2017 10:00:00 (CET)Saarbrücken-Ensheim, Duitsland (10708): luchtdruk: 22.02.2017 10:00:00 - 28.02.2017 10:00:00 (CET)Saarbrücken-Ensheim, Duitsland (10708): zicht: 22.02.2017 10:00:00 - 28.02.2017 10:00:00 (CET)Saarbrücken-Ensheim, Duitsland (10708): Zonneschijnduur: 22.02.2017 10:00:00 - 28.02.2017 10:00:00 (CET)Saarbrücken-Ensheim, Duitsland (10708): neerslag: 22.02.2017 10:00:00 - 28.02.2017 10:00:00 (CET)
Datum & Tijd tt [°C] td [°C] tt 5cm [°C] tt -5cm [°C] tt -20cm [°C] tt -100cm [°C] ff [km/u] ff [kn] fx [km/u] fx [kn] dd ppp [hPa] vv [km] sd [min] rr [mm]
28.02.2017 10:00:00 4,8 2,5 4,9 5,2 5,4 5,8 29 16 40 22 ZZW 998,5 10 30 0,0
28.02.2017 09:00:00 3,8 2,6 3,5 4,0 5,5 5,8 21 11 38 20 ZZW 998,6 10 0 0,0
28.02.2017 08:00:00 3,3 2,4 2,7 3,6 5,6 5,8 20 11 31 17 ZW 998,8 40 0 0,0
28.02.2017 07:00:00 3,1 2,4 2,6 3,8 5,8 5,8 22 12 38 21 ZW 998,6 10 0 0,0
28.02.2017 06:00:00 2,7 1,7 2,1 4,1 6,0 5,8 28 15 47 25 ZW 998,3 10 0 0,8
28.02.2017 05:00:00 3,9 2,6 3,4 4,5 6,1 5,8 28 15 44 24 ZZW 997,6 10 0 0,0
28.02.2017 04:00:00 4,1 2,6 3,6 4,7 6,3 5,8 27 15 42 23 ZW 997,2 35 0 0,0
28.02.2017 03:00:00 4,1 2,8 3,7 4,9 6,4 5,8 26 14 38 20 ZW 997,4 10 0 0,0
28.02.2017 02:00:00 4,0 3,1 3,7 5,2 6,6 5,8 22 12 39 21 ZZW 997,6 10 0 0,0
28.02.2017 01:00:00 4,1 3,2 3,6 5,6 6,8 5,8 28 15 48 26 ZW 997,5 10 0 1,4
28.02.2017 00:00:00 4,6 3,8 4,1 6,1 6,9 5,8 34 18 53 29 WZW 998,6 10 0 0,9
27.02.2017 23:00:00 6,1 5,8 5,8 6,5 7,0 5,8 21 11 42 23 WZW 998,0 8 0 1,2
27.02.2017 22:00:00 6,8 5,9 6,0 6,7 7,2 5,8 26 14 56 30 ZW 997,8 15 0 1,1
27.02.2017 21:00:00 6,8 5,7 6,0 7,0 7,3 5,7 41 22 91 49 ZW 998,0 8 0 4,6
27.02.2017 20:00:00 8,5 3,6 6,6 7,7 7,5 5,7 76 41 109 59 W 997,9 3,5 0 0,0
27.02.2017 19:00:00 11,1 4,5 9,8 8,0 7,6 5,7 22 12 35 19 Z 996,6 10 0 0,0
27.02.2017 18:00:00 11,1 3,7 9,8 8,6 7,6 5,7 25 13 41 22 Z 998,0 40 0 0,0
27.02.2017 17:00:00 11,0 3,4 10,3 9,0 7,7 5,7 24 13 42 23 Z 999,8 10 0 0,0
27.02.2017 16:00:00 11,1 3,4 10,5 9,7 7,6 5,7 28 15 57 31 ZW 1001,5 50 0 0,0
27.02.2017 15:00:00 11,4 3,1 11,4 10,5 7,4 5,7 41 22 59 32 ZW 1002,1 10 1 0,0
27.02.2017 14:00:00 11,7 4,0 12,7 10,8 7,1 5,7 34 19 53 29 ZZW 1003,1 50 7 0,0
27.02.2017 13:00:00 11,3 4,5 13,0 11,2 6,7 5,7 35 19 53 29 ZW 1004,9 10 35 0,0
27.02.2017 12:00:00 10,6 5,0 12,8 9,8 6,4 5,7 31 17 46 25 ZW 1006,2 40 21 0,0
27.02.2017 11:00:00 9,5 4,3 10,2 8,7 6,2 5,7 29 16 40 22 ZW 1007,3 40 29 0,0
27.02.2017 10:00:00 9,2 4,1 10,7 7,0 6,1 5,7 22 12 36 20 ZW 1008,1 40 13 0,0
27.02.2017 09:00:00 8,4 3,5 8,0 6,2 6,1 5,7 21 12 31 17 ZZW 1008,9 40 0 0,0
27.02.2017 08:00:00 8,6 4,0 7,8 6,1 6,1 5,7 18 10 29 16 ZW 1009,4 40 0 0,0
27.02.2017 07:00:00 8,7 4,2 7,8 6,2 6,1 5,7 20 11 31 17 ZW 1009,8 40 0 0,0
27.02.2017 06:00:00 9,0 4,1 8,1 6,2 6,2 5,7 18 10 28 15 ZW 1010,2 40 0 0,0
27.02.2017 05:00:00 9,0 4,2 8,1 6,3 6,2 5,7 17 9 26 14 ZW 1010,8 40 0 0,0
27.02.2017 04:00:00 8,6 4,3 7,9 6,4 6,2 5,7 16 9 25 14 ZZW 1011,8 40 0 0,0
27.02.2017 03:00:00 9,0 5,0 8,1 6,5 6,3 5,7 16 9 29 16 ZW 1012,5 40 0 0,0
27.02.2017 02:00:00 8,8 5,6 8,1 6,7 6,3 5,7 16 9 24 13 ZZW 1013,0 40 0 0,0
27.02.2017 01:00:00 9,2 5,6 8,3 6,8 6,3 5,7 18 10 27 14 ZW 1013,4 10 0 0,0
27.02.2017 00:00:00 9,3 5,7 8,6 6,9 6,4 5,7 21 11 27 15 ZW 1013,7 10 0 0,0
26.02.2017 23:00:00 9,3 5,8 8,6 7,0 6,4 5,7 18 10 26 14 ZW 1014,2 10 0 0,0
26.02.2017 22:00:00 9,5 5,8 8,8 7,1 6,5 5,7 21 11 29 16 ZW 1014,4 10 0 0,0
26.02.2017 21:00:00 9,5 5,4 8,7 7,3 6,6 5,7 18 10 29 15 WZW 1014,8 10 0 0,0
26.02.2017 20:00:00 9,7 4,7 8,9 7,6 6,6 5,7 16 9 24 13 WZW 1015,0 40 0 0,0
26.02.2017 19:00:00 9,9 3,8 8,8 8,0 6,7 5,7 14 8 26 14 WZW 1014,9 30 0 0,0
26.02.2017 18:00:00 10,7 2,3 9,8 8,8 6,6 5,7 16 9 34 18 WZW 1014,5 10 0 0,0
26.02.2017 17:00:00 11,3 2,2 10,8 10,0 6,4 5,7 23 12 35 19 WZW 1014,2 40 36 0,0
26.02.2017 16:00:00 11,9 1,7 13,2 11,1 6,0 5,7 24 13 37 20 WZW 1014,5 10 60 0,0
26.02.2017 15:00:00 11,7 1,7 14,1 11,1 5,5 5,7 32 18 46 25 ZW 1014,7 40 60 0,0
26.02.2017 14:00:00 10,7 1,5 13,6 10,4 4,9 5,7 28 15 42 23 ZW 1015,5 10 60 0,0
26.02.2017 13:00:00 9,6 1,5 12,9 8,9 4,3 5,7 28 15 36 20 WZW 1016,3 10 57 0,0
26.02.2017 12:00:00 7,6 1,4 8,5 7,0 3,9 5,7 23 12 35 19 ZW 1017,3 30 49 0,0
26.02.2017 11:00:00 5,6 1,4 5,6 4,4 3,7 5,7 18 10 35 19 ZW 1018,0 10 3 0,0
26.02.2017 10:00:00 4,0 1,0 4,4 3,0 3,6 5,7 16 9 24 13 ZZW 1017,9 25 0 0,0
26.02.2017 09:00:00 3,0 0,5 2,7 2,3 3,6 5,7 15 8 28 15 ZZW 1018,1 10 0 0,0
26.02.2017 08:00:00 2,8 0,3 2,2 1,9 3,6 5,7 16 9 29 16 ZW 1017,8 10 0 0,0
26.02.2017 07:00:00 2,9 0,1 2,2 1,8 3,7 5,7 21 11 29 16 ZW 1017,6 10 0 0,0
26.02.2017 06:00:00 2,4 0,2 1,6 1,5 3,7 5,7 15 8 24 13 ZZW 1017,8 10 0 0,0
26.02.2017 05:00:00 2,4 0,1 1,0 1,5 3,8 5,7 16 9 24 13 ZW 1018,0 30 0 0,0
26.02.2017 04:00:00 3,0 0,1 1,4 1,5 4,0 5,7 9 5 15 8 ZW 1018,4 10 0 0,0
26.02.2017 03:00:00 1,7 0,2 0,0 1,6 4,1 5,7 4 2 16 9 - 1018,9 10 0 0,0
26.02.2017 02:00:00 3,0 0,9 1,4 1,7 4,2 5,7 11 6 21 11 ZW 1018,8 30 0 0,0
26.02.2017 01:00:00 3,1 0,7 1,4 1,7 4,4 5,7 13 7 18 10 ZW 1019,0 10 0 0,0
26.02.2017 00:00:00 2,6 0,0 -0,8 1,8 4,7 5,7 7 4 15 8 WZW 1019,4 30 0 0,0
25.02.2017 23:00:00 2,9 0,2 -0,5 2,2 4,9 5,7 11 6 14 8 ZZW 1019,6 10 0 0,0
25.02.2017 22:00:00 2,3 -0,6 -0,9 2,9 5,2 5,7 5 3 11 6 WZW 1020,2 10 0 0,0
25.02.2017 21:00:00 3,5 0,1 1,4 3,5 5,5 5,7 5 3 9 5 Z 1020,2 10 0 0,0
25.02.2017 20:00:00 2,5 0,8 0,0 4,3 5,7 5,7 5 3 5 3 O 1020,7 10 0 0,0
25.02.2017 19:00:00 3,3 0,5 0,4 5,3 5,9 5,7 5 3 9 5 ZZW 1021,0 10 0 0,0
25.02.2017 18:00:00 5,2 0,9 3,2 6,9 5,9 5,7 8 4 11 6 ZZW 1020,8 10 17 0,0
25.02.2017 17:00:00 6,2 0,7 5,6 8,5 5,7 5,7 9 5 16 9 W 1021,2 10 59 0,0
25.02.2017 16:00:00 6,5 1,6 8,4 9,5 5,3 5,7 8 5 18 10 ZW 1021,2 25 60 0,0
25.02.2017 15:00:00 5,7 2,1 9,1 9,8 4,7 5,7 11 6 18 10 WZW 1022,4 10 53 0,0
25.02.2017 14:00:00 4,6 4,6 8,7 8,6 4,1 5,7 8 4 15 8 ZW 1023,0 10 41 0,0
25.02.2017 13:00:00 2,8 2,8 8,7 5,8 3,7 5,7 6 4 16 9 ZW 1024,1 6 11 0,0
25.02.2017 12:00:00 0,9 0,9 3,4 3,8 3,4 5,7 5 3 11 6 ZZW 1025,0 0,8 0 0,0
25.02.2017 11:00:00 -0,1 -0,1 1,8 1,7 3,4 5,7 6 3 9 5 Z 1025,1 0,2 0 0,0
25.02.2017 10:00:00 -0,6 -0,6 0,0 1,0 3,5 5,7 4 2 5 3 - 1025,3 0,3 0 0,0
25.02.2017 09:00:00 -1,4 -1,4 -0,7 1,0 3,6 5,7 4 2 5 3 - 1025,4 0,1 0 0,0
25.02.2017 08:00:00 -1,3 -1,3 -1,0 1,0 3,6 5,7 0 0 8 4 N 1024,4 0,2 0 0,0
25.02.2017 07:00:00 -1,4 -1,4 -1,1 1,0 3,7 5,7 3 1 8 4 OZO 1024,1 0,2 0 0,0
25.02.2017 06:00:00 -2,1 -2,1 -1,6 1,0 3,9 5,7 5 3 9 5 ZO 1024,0 0,1 0 0,0
25.02.2017 05:00:00 -2,3 -2,3 -2,1 1,1 4,0 5,7 3 1 5 3 O 1023,9 0,1 0 0,0
25.02.2017 04:00:00 -2,5 -2,5 -2,4 1,1 4,2 5,6 4 2 4 2 OZO 1023,8 0,1 0 0,0
25.02.2017 03:00:00 -3,7 -3,7 -4,7 1,2 4,3 5,6 2 1 4 2 - 1023,9 - 0 0,0
25.02.2017 02:00:00 -2,5 -2,5 -4,6 1,4 4,5 5,6 4 2 5 3 - 1023,8 0,1 0 0,0
25.02.2017 01:00:00 -1,3 -1,3 -4,3 1,6 4,7 5,6 2 1 4 2 - 1023,4 1,2 0 0,0
25.02.2017 00:00:00 -1,4 -1,4 -3,8 1,8 5,0 5,6 0 0 4 2 N 1023,2 7 0 0,0
24.02.2017 23:00:00 -0,8 -0,9 -2,1 2,0 5,2 5,6 4 2 5 3 - 1022,5 10 0 0,0
24.02.2017 22:00:00 -0,6 -0,8 -3,2 2,3 5,6 5,6 5 3 5 3 W 1022,0 10 0 0,0
24.02.2017 21:00:00 0,2 -0,3 -2,9 2,8 5,9 5,6 4 2 5 3 W 1021,3 10 0 0,0
24.02.2017 20:00:00 1,3 0,1 -2,4 3,8 6,2 5,6 4 2 9 5 WNW 1020,5 40 0 0,0
24.02.2017 19:00:00 2,3 0,3 -0,4 5,1 6,5 5,6 8 4 21 11 NW 1019,2 10 0 0,0
24.02.2017 18:00:00 4,5 1,2 3,5 6,5 6,6 5,6 15 8 24 13 WNW 1017,7 10 44 0,0
24.02.2017 17:00:00 5,0 0,0 4,1 8,6 6,5 5,6 18 10 24 13 WNW 1016,4 10 20 0,0
24.02.2017 16:00:00 7,1 0,6 9,8 9,5 6,2 5,6 15 8 22 12 W 1015,3 10 45 0,0
24.02.2017 15:00:00 6,8 0,7 8,4 8,6 5,9 5,6 11 6 24 13 WNW 1014,9 10 19 0,0
24.02.2017 14:00:00 6,2 0,1 7,0 8,7 5,6 5,6 18 10 29 15 NNW 1014,8 10 19 0,0
24.02.2017 13:00:00 6,7 0,5 8,3 7,2 5,3 5,6 17 9 24 13 WNW 1014,7 40 11 0,0
24.02.2017 12:00:00 5,4 0,5 5,2 6,0 5,1 5,5 18 10 29 16 W 1014,8 10 0 0,0
24.02.2017 11:00:00 4,8 1,2 4,5 5,1 5,0 5,5 16 9 29 16 NW 1014,5 10 2 0,0
24.02.2017 10:00:00 4,6 2,2 5,5 4,1 5,0 5,5 21 11 28 15 W 1013,8 10 37 0,0
24.02.2017 09:00:00 3,3 2,0 2,0 3,2 5,1 5,5 18 10 26 14 W 1013,3 10 21 0,0
24.02.2017 08:00:00 3,0 2,0 1,6 3,3 5,3 5,5 16 9 28 15 W 1012,5 10 0 0,0
24.02.2017 07:00:00 3,3 2,4 2,1 3,7 5,4 5,5 21 11 25 13 W 1011,5 10 0 0,0
24.02.2017 06:00:00 3,4 2,2 2,8 3,6 5,5 5,5 14 8 29 16 W 1010,9 20 0 0,0
24.02.2017 05:00:00 3,2 2,5 2,4 3,8 5,6 5,5 21 11 31 17 W 1010,0 10 0 0,0
24.02.2017 04:00:00 2,7 2,2 2,3 4,1 5,8 5,5 26 14 56 30 WNW 1009,4 10 0 1,3
24.02.2017 03:00:00 5,6 0,8 4,6 4,2 5,9 5,5 39 21 68 37 W 1007,4 10 0 0,0
24.02.2017 02:00:00 5,8 0,6 4,7 4,5 6,1 5,5 41 22 70 38 W 1006,5 35 0 0,0
24.02.2017 01:00:00 6,2 0,4 5,1 4,8 6,2 5,5 49 26 69 37 W 1005,6 35 0 0,0
24.02.2017 00:00:00 6,6 0,7 5,6 5,0 6,4 5,4 50 27 74 40 W 1004,8 10 0 0,0
23.02.2017 23:00:00 6,8 1,7 4,5 5,3 6,5 5,4 39 21 66 35 W 1004,0 10 0 0,0
23.02.2017 22:00:00 7,5 2,2 5,1 5,8 6,7 5,4 50 27 76 41 W 1003,2 10 0 0,0
23.02.2017 21:00:00 7,6 5,3 6,1 6,5 6,8 5,4 34 18 61 33 WZW 1002,6 10 0 0,0
23.02.2017 20:00:00 7,7 6,1 6,6 6,8 6,8 5,4 39 21 68 37 WZW 1002,1 35 0 0,6
23.02.2017 19:00:00 8,0 5,9 6,8 7,0 6,9 5,4 42 23 66 36 WZW 1001,5 40 0 0,3
23.02.2017 18:00:00 8,6 5,2 7,6 7,3 7,0 5,4 48 26 71 38 ZW 1001,1 10 0 0,0
23.02.2017 17:00:00 8,4 5,5 7,1 7,7 7,0 5,4 44 24 68 37 WZW 1001,1 30 0 0,1
23.02.2017 16:00:00 9,5 4,7 9,1 8,3 6,9 5,4 37 20 58 31 WZW 1000,9 10 0 0,0
23.02.2017 15:00:00 9,7 5,0 9,5 8,8 6,7 5,4 35 19 60 32 W 1002,2 10 1 0,0
23.02.2017 14:00:00 9,4 5,1 10,0 8,6 6,6 5,4 32 18 49 26 WZW 1002,6 35 1 0,0
23.02.2017 13:00:00 8,4 5,0 9,8 8,1 6,4 5,3 33 18 50 27 WZW 1004,0 35 2 0,0
23.02.2017 12:00:00 7,6 4,4 8,2 7,4 6,3 5,3 34 18 48 26 WZW 1005,3 10 1 0,0
23.02.2017 11:00:00 7,0 4,4 7,3 6,6 6,2 5,3 26 14 44 24 ZW 1006,6 10 0 0,0
23.02.2017 10:00:00 7,0 4,4 7,7 6,4 6,2 5,3 28 15 45 24 ZW 1007,1 10 0 0,0
23.02.2017 09:00:00 6,9 4,3 6,6 6,0 6,3 5,3 29 16 41 22 ZW 1008,1 10 0 0,0
23.02.2017 08:00:00 7,1 4,5 6,6 6,0 6,3 5,3 26 14 38 20 WZW 1008,9 30 0 0,0
23.02.2017 07:00:00 7,3 4,8 6,7 6,1 6,4 5,3 28 15 48 26 WZW 1009,6 10 0 0,0
23.02.2017 06:00:00 7,5 5,0 6,9 6,2 6,4 5,3 29 16 48 26 WZW 1010,4 10 0 0,0
23.02.2017 05:00:00 7,4 5,6 6,9 6,4 6,4 5,3 27 14 56 30 WZW 1011,0 25 0 0,0
23.02.2017 04:00:00 7,5 6,2 7,1 6,5 6,5 5,3 34 18 48 26 ZW 1011,6 10 0 0,0
23.02.2017 03:00:00 7,7 6,2 7,3 6,5 6,5 5,2 29 16 48 26 ZW 1011,9 10 0 0,0
23.02.2017 02:00:00 7,8 6,2 7,4 6,5 6,5 5,2 29 16 49 26 WZW 1012,6 25 0 0,0
23.02.2017 01:00:00 7,6 6,4 7,0 6,6 6,5 5,2 29 16 53 29 WZW 1013,0 18 0 0,0
23.02.2017 00:00:00 7,7 6,3 7,3 6,6 6,6 5,2 30 16 57 31 WZW 1013,2 20 0 0,0
22.02.2017 23:00:00 7,6 6,5 7,2 6,7 6,6 5,2 34 18 57 31 WZW 1013,4 10 0 0,0
22.02.2017 22:00:00 7,7 6,5 7,3 6,8 6,7 5,2 34 18 66 36 WZW 1013,7 10 0 0,0
22.02.2017 21:00:00 7,9 6,5 7,6 6,9 6,7 5,2 35 19 66 35 WZW 1013,8 10 0 0,0
22.02.2017 20:00:00 7,8 6,6 7,5 7,0 6,7 5,2 35 19 63 34 WZW 1013,5 10 0 0,0
22.02.2017 19:00:00 8,0 6,8 7,6 7,1 6,8 5,2 37 20 58 31 WZW 1013,6 10 0 0,0
22.02.2017 18:00:00 8,2 6,9 7,6 7,3 6,8 5,2 39 21 61 33 WZW 1013,6 10 0 0,0
22.02.2017 17:00:00 8,5 6,8 8,2 7,5 6,8 5,1 37 20 61 33 WZW 1013,3 10 0 0,0
22.02.2017 16:00:00 8,7 6,8 8,4 7,5 6,8 5,1 39 21 61 33 WZW 1013,7 10 0 0,0
22.02.2017 15:00:00 8,5 6,7 8,2 7,5 6,8 5,1 29 16 47 25 WZW 1014,4 10 0 0,0
22.02.2017 14:00:00 8,4 6,9 8,1 7,5 6,7 5,1 35 19 51 27 WZW 1014,7 10 0 0,0
22.02.2017 13:00:00 8,3 7,0 7,7 7,5 6,7 5,1 34 18 56 30 WZW 1015,2 10 0 0,0
22.02.2017 12:00:00 7,9 7,3 7,6 7,4 6,7 5,1 34 18 51 27 WZW 1015,5 8 0 0,0
22.02.2017 11:00:00 8,3 7,0 7,6 7,4 6,7 5,1 31 17 50 27 WZW 1015,5 15 0 0,0
22.02.2017 10:00:00 8,2 7,3 7,5 7,3 6,7 5,1 29 16 50 27 WZW 1015,5 10 0 0,0

tt = temperatuur
td = dauwpunt
tt 5cm = temperatuur 5cm
tt -5cm = temperatuur -5cm
tt -20cm = temperatuur -20cm
tt -100cm = temperatuur -100cm
ff = windsnelheid
fx = windstoten
dd = windrichting
ppp = luchtdruk
vv = zicht
sd = Zonneschijnduur
rr = neerslag

Weerstations in de omgeving